{"data":{"norad_id":65930,"epoch":"2026-05-24T12:08:54.945600Z","epoch_age_seconds":113708,"freshness":"FRESH","line1":"1 65930U 25225W   26144.50619150  .00012457  00000+0  43194-3 0  9995","line2":"2 65930  53.1578 173.6838 0001173  91.9890 268.1245 15.30204370 36011","mean_motion":15.3020437,"eccentricity":0.0001173,"inclination_deg":53.1578,"raan_deg":173.6838,"arg_perigee_deg":91.989,"mean_anomaly_deg":268.1245,"bstar":0.00043194,"rev_number":3601,"period_min":94.105076957792,"perigee_km":474.39812475086,"apogee_km":476.00591808529,"semimajor_km":6853.3390214181,"source":"CELESTRAK","updated_at":"2026-05-25T13:38:20.990499Z"}}